Wind_Speed
36 37 38 39 39 41 42 43 43 44 45 47 48 48 48 47 47 47 47 46 46 46 47 46 45 44 44 45 46 45 45 45 45 44 44 43 43 42 42 41 40 38 38
36 36 38 38 40 41 42 43 43 44 45 46 48 49 49 49 48 47 47 47 47 48 48 47 46 46 45 46 47 47 47 46 47 47 46 46 45 45 45 44 43 41 40
35 35 37 38 39 40 41 42 43 45 45 46 48 49 49 49 49 48 48 49 49 49 49 48 47 48 47 47 47 48 48 48 48 49 49 48 48 47 47 47 46 44 43
34 35 36 37 38 39 40 41 43 44 45 46 47 47 48 49 49 49 49 50 50 50 50 50 49 49 48 48 48 49 50 50 49 50 50 50 49 49 49 49 48 47 46
33 34 35 36 37 38 39 40 42 43 44 45 47 47 48 50 49 50 51 51 51 50 50 51 51 51 50 49 49 50 50 50 50 51 51 51 51 51 51 51 50 50 48
33 34 35 36 37 38 39 40 42 42 43 44 46 47 48 50 50 50 51 51 52 51 52 51 52 52 51 50 50 50 50 51 51 51 51 52 52 53 53 53 52 52 50
34 34 34 36 37 38 39 40 41 42 43 44 46 46 47 48 49 50 51 52 52 52 53 52 52 52 52 51 50 50 51 51 52 52 51 52 53 54 54 54 54 53 52
33 34 34 35 36 37 38 39 40 41 42 44 45 46 47 48 50 51 52 53 53 53 53 53 53 53 53 53 53 52 52 52 52 52 52 52 53 55 55 55 55 54 54
33 34 34 35 35 36 38 39 41 42 42 44 45 47 48 49 49 50 51 51 52 53 53 54 54 54 54 55 54 54 53 54 53 53 53 53 53 54 56 56 56 56 55
35 35 35 35 35 36 38 39 41 42 43 45 46 46 47 48 48 49 51 53 52 53 54 55 55 55 55 56 55 54 54 54 54 54 54 54 54 54 55 56 56 56 56
35 35 37 37 38 38 39 39 40 41 43 45 46 47 47 47 47 48 49 51 52 52 53 54 54 55 55 56 56 56 54 54 54 54 55 55 55 55 56 56 57 57 58
36 36 37 37 38 38 39 40 41 42 42 44 45 46 46 46 47 47 49 50 51 52 53 53 53 54 56 56 55 56 55 55 55 54 55 55 56 56 56 57 58 58 59
36 36 37 38 38 39 40 40 41 42 43 44 45 45 45 47 48 48 48 49 50 52 53 53 53 54 55 56 55 55 55 56 56 55 55 55 56 56 57 57 57 58 58
36 36 37 38 38 39 40 40 41 42 42 43 43 44 46 47 49 50 50 49 49 51 52 54 54 53 54 55 54 54 55 56 56 55 55 55 54 55 56 57 57 58 59
36 37 37 38 39 39 40 41 42 42 42 42 42 43 45 46 47 48 48 49 49 50 51 52 53 53 54 54 54 54 54 54 55 54 54 54 54 55 55 56 56 57 59
37 37 38 39 39 40 40 40 41 42 42 41 41 42 43 44 45 46 47 48 49 50 50 51 52 52 53 53 54 54 54 53 53 54 53 53 54 55 55 55 56 57 59
38 37 38 39 39 40 41 41 42 42 42 41 41 41 42 43 44 46 47 48 48 49 49 50 51 52 53 53 53 55 55 55 54 53 54 53 52 53 55 55 56 56 57
38 38 39 39 39 40 40 41 42 42 41 41 41 41 42 42 43 45 46 47 48 48 49 50 51 52 53 53 54 55 56 56 55 54 54 54 52 52 53 53 55 55 55
39 39 39 39 39 39 40 40 41 41 41 42 43 43 43 42 43 43 44 44 46 47 48 49 50 52 53 54 54 54 56 56 55 55 56 56 55 54 53 54 55 55 55
40 40 39 39 39 39 39 39 39 39 40 41 42 43 43 43 43 43 43 45 45 46 48 49 51 52 52 53 53 54 54 56 56 56 56 56 57 56 55 55 55 55 55
39 39 39 39 39 39 38 37 37 37 38 39 41 41 42 42 42 42 43 44 45 47 48 49 49 50 51 52 53 54 55 55 55 55 56 56 57 57 56 55 55 55 55
38 38 38 38 38 38 37 37 37 37 37 38 39 40 41 42 43 43 42 42 43 45 46 47 47 48 49 51 52 53 54 55 55 55 56 56 56 56 56 56 56 56 56
37 37 37 37 37 37 37 36 36 36 36 37 38 39 41 41 42 42 42 43 43 43 43 44 45 45 47 48 49 50 52 53 54 53 54 53 55 56 56 57 57 58 58
35 35 35 36 35 35 35 36 36 36 36 37 37 38 39 40 41 42 42 43 42 42 42 42 42 43 44 46 47 49 50 50 52 52 52 53 54 55 55 56 56 57 58
33 33 34 34 34 34 34 34 35 35 35 36 36 37 38 39 40 40 41 41 41 41 41 40 41 41 41 43 44 46 47 48 48 49 50 51 52 53 54 54 54 55 56
32 33 33 33 33 32 32 33 33 34 34 35 35 36 36 36 37 38 38 39 38 38 38 38 39 39 39 40 42 43 44 46 47 47 47 47 48 50 52 53 54 54 54
Wind_Direction
264 261 260 258 257 256 256 256 257 257 254 253 252 252 253 253 255 255 255 255 256 256 255 254 254 254 254 253 252 251 251 250 248 246 245 244 244 243 242 242 242 243 244
265 262 261 259 258 258 257 257 257 258 256 254 253 253 253 253 254 256 255 255 256 256 255 255 254 254 253 254 253 252 251 250 249 248 246 245 244 244 243 242 243 243 244
267 264 264 262 261 261 260 258 258 258 256 255 255 254 253 253 254 255 255 255 255 255 255 254 254 254 254 254 254 253 252 251 250 249 247 246 245 244 242 242 243 243 244
269 267 265 263 262 261 261 259 259 259 258 257 255 255 255 254 254 255 255 255 255 255 254 254 254 254 254 255 254 253 253 252 251 249 248 247 246 245 243 242 242 243 244
272 269 266 265 264 263 262 261 260 261 260 258 256 257 257 255 255 254 253 254 255 255 255 255 254 254 254 254 254 253 253 252 251 250 249 247 246 246 245 244 243 243 243
274 273 270 268 267 265 264 263 261 263 262 259 257 258 258 257 257 255 254 255 255 256 256 256 256 255 253 252 253 252 252 253 252 251 249 248 247 246 245 244 244 244 244
275 273 272 270 268 267 266 265 263 263 262 262 261 260 259 260 258 257 255 255 255 255 255 255 256 254 253 252 252 252 252 253 254 252 251 249 248 247 246 245 244 243 244
276 273 272 273 270 268 267 265 265 264 263 263 263 261 260 260 259 258 256 255 255 255 255 255 255 255 253 252 252 252 253 253 254 253 251 251 249 247 246 245 244 243 243
278 275 273 273 272 270 268 267 266 266 264 263 263 262 261 260 260 259 257 255 255 255 254 254 254 255 255 254 254 254 253 253 254 253 252 251 249 248 246 244 244 244 244
280 277 276 274 273 271 270 269 267 266 264 264 264 263 262 262 261 260 258 256 256 256 254 254 254 254 255 255 254 254 253 253 253 252 251 250 249 248 246 245 244 244 244
281 279 278 276 274 272 271 271 270 268 265 265 266 265 264 263 263 262 261 259 257 256 254 254 254 254 255 254 254 253 252 251 252 252 251 250 249 248 247 246 245 245 245
282 281 279 277 275 274 274 274 272 270 268 267 267 266 264 264 264 264 263 262 259 257 255 254 254 255 254 253 252 251 251 251 251 251 251 250 249 248 247 247 246 246 245
283 282 280 278 277 276 276 276 274 273 271 269 267 265 264 265 264 264 265 264 262 259 256 255 255 255 253 252 251 250 250 251 251 251 251 250 249 248 248 248 247 246 246
285 282 281 279 278 277 276 276 275 274 273 271 269 266 266 266 265 265 265 264 263 261 257 255 255 255 254 253 253 252 251 251 250 250 250 249 249 248 247 247 246 246 245
284 283 281 280 280 279 278 277 276 274 273 272 269 267 267 267 267 266 266 265 264 262 259 257 255 254 253 253 253 252 252 251 251 250 248 247 248 248 247 247 246 246 245
286 284 282 281 281 280 280 278 276 274 273 272 269 268 269 268 268 268 267 267 265 263 261 259 257 255 255 254 253 253 252 251 251 249 248 248 249 248 248 248 248 247 246
288 286 285 284 283 281 280 277 275 274 272 271 270 270 271 271 270 268 268 268 266 265 263 261 259 257 256 255 254 254 253 253 251 249 249 249 249 250 249 248 248 247 245
289 287 287 287 286 284 281 279 277 275 273 272 271 271 271 271 270 269 268 268 267 266 265 263 261 259 257 256 255 255 254 253 251 249 248 249 249 249 247 248 248 247 245
290 289 289 288 287 286 283 281 279 275 273 272 271 272 272 272 271 270 269 268 267 267 265 263 261 259 258 257 256 256 255 253 251 250 250 249 250 248 248 248 247 246 246
291 290 289 289 289 288 286 283 280 276 274 273 273 272 273 272 272 271 271 270 269 269 266 264 262 259 258 257 256 255 254 253 252 251 251 250 249 249 249 248 247 247 248
292 291 290 290 290 289 287 284 281 279 276 274 274 274 274 273 273 272 272 271 270 269 268 265 263 260 258 257 256 255 253 253 252 251 251 251 250 249 248 248 248 249 248
294 293 292 291 290 289 287 285 282 280 278 276 275 275 275 275 274 274 273 273 271 270 268 266 263 261 259 257 256 255 253 253 253 252 251 250 249 248 247 247 247 248 248
296 295 294 292 291 290 287 285 283 281 278 277 276 276 276 276 275 275 274 274 274 272 269 267 265 263 261 258 257 255 255 254 252 252 251 249 247 246 246 246 247 247 248
298 297 296 295 292 290 287 285 284 282 279 277 277 276 276 276 276 275 276 276 275 273 271 268 266 264 262 260 258 256 255 253 252 251 250 248 246 245 246 246 247 247 247
299 299 299 298 296 292 289 287 285 283 280 279 278 278 278 277 276 276 276 276 275 273 271 269 267 265 263 261 259 256 254 252 251 251 251 250 248 247 247 247 247 247 247
301 300 300 300 299 296 292 289 286 284 282 281 280 280 279 278 278 277 277 276 274 272 271 270 269 267 265 262 259 256 253 251 250 250 249 249 249 248 248 248 248 247 247
Height
5695 5695 5696 5697 5698 5700 5701 5703 5704 5706 5708 5710 5712 5714 5717 5719 5721 5722 5724 5725 5726 5728 5729 5731 5733 5734 5736 5738 5739 5741 5743 5746 5748 5751 5754 5757 5760 5763 5766 5770 5773 5776 5779
5685 5685 5685 5686 5687 5688 5689 5691 5692 5694 5696 5697 5699 5702 5704 5706 5708 5710 5711 5713 5714 5715 5717 5718 5720 5722 5724 5725 5727 5729 5731 5734 5736 5739 5742 5746 5750 5752 5756 5759 5763 5766 5769
5675 5675 5675 5676 5676 5677 5678 5679 5680 5682 5683 5684 5686 5688 5690 5692 5694 5696 5698 5700 5701 5702 5704 5706 5707 5710 5711 5713 5715 5716 5719 5722 5724 5727 5730 5734 5738 5741 5745 5748 5752 5755 5759
5666 5665 5665 5665 5666 5666 5666 5667 5668 5669 5670 5671 5673 5675 5677 5679 5681 5683 5685 5686 5688 5689 5691 5692 5694 5696 5699 5700 5702 5703 5706 5708 5711 5714 5717 5721 5725 5729 5733 5737 5741 5744 5748
5657 5656 5655 5656 5656 5656 5656 5656 5657 5657 5658 5659 5660 5661 5663 5665 5667 5668 5670 5672 5674 5675 5677 5678 5680 5682 5685 5687 5689 5691 5692 5695 5698 5701 5704 5708 5711 5715 5720 5725 5729 5732 5736
5647 5646 5645 5645 5645 5645 5645 5645 5645 5645 5645 5646 5647 5648 5650 5651 5653 5655 5656 5658 5660 5661 5663 5665 5666 5668 5671 5673 5675 5677 5679 5681 5684 5687 5690 5694 5698 5702 5706 5711 5716 5720 5724
5638 5636 5635 5634 5634 5634 5634 5634 5634 5634 5634 5634 5634 5635 5636 5637 5639 5641 5642 5643 5645 5647 5649 5650 5652 5654 5657 5659 5662 5663 5666 5668 5670 5673 5676 5679 5683 5687 5691 5696 5702 5706 5711
5628 5626 5625 5624 5623 5623 5623 5623 5623 5623 5622 5622 5622 5622 5622 5624 5625 5626 5627 5629 5630 5632 5634 5636 5638 5640 5642 5645 5648 5650 5652 5654 5657 5659 5662 5665 5669 5673 5677 5682 5687 5693 5698
5619 5617 5616 5614 5613 5613 5612 5612 5612 5611 5610 5610 5610 5609 5609 5610 5611 5612 5612 5614 5615 5617 5619 5621 5623 5626 5628 5631 5633 5636 5638 5640 5642 5645 5648 5651 5654 5658 5663 5667 5673 5678 5684
5610 5608 5606 5605 5604 5602 5601 5601 5600 5599 5598 5598 5597 5597 5596 5596 5597 5598 5598 5599 5600 5602 5604 5606 5608 5611 5613 5616 5618 5621 5623 5625 5628 5631 5634 5637 5640 5644 5648 5653 5658 5663 5669
5600 5598 5596 5594 5593 5592 5591 5589 5588 5587 5586 5586 5585 5584 5584 5584 5584 5584 5584 5585 5586 5587 5589 5591 5593 5595 5598 5600 5603 5606 5608 5610 5613 5616 5619 5623 5626 5630 5634 5639 5644 5648 5654
5590 5588 5586 5584 5582 5581 5580 5578 5577 5576 5574 5573 5573 5572 5571 5571 5571 5571 5571 5571 5572 5573 5574 5576 5578 5580 5583 5585 5588 5590 5593 5596 5599 5602 5605 5608 5612 5615 5620 5624 5629 5634 5639
5580 5577 5575 5573 5571 5570 5568 5567 5565 5564 5562 5561 5560 5559 5559 5558 5558 5558 5557 5557 5557 5558 5559 5561 5563 5565 5567 5570 5573 5576 5579 5581 5584 5588 5591 5594 5597 5601 5605 5610 5614 5619 5624
5569 5566 5564 5562 5560 5558 5556 5555 5553 5552 5550 5548 5547 5547 5546 5545 5545 5544 5543 5543 5543 5544 5545 5546 5548 5550 5552 5555 5558 5561 5564 5567 5570 5573 5576 5580 5583 5587 5591 5595 5600 5604 5609
5558 5556 5553 5551 5549 5547 5545 5543 5541 5539 5538 5536 5535 5535 5534 5533 5532 5531 5530 5530 5530 5530 5530 5532 5533 5536 5538 5541 5544 5547 5550 5553 5556 5559 5562 5566 5570 5573 5577 5581 5585 5589 5593
5548 5545 5542 5540 5537 5535 5533 5531 5529 5527 5526 5524 5523 5523 5522 5521 5519 5518 5517 5517 5516 5516 5516 5518 5519 5521 5524 5527 5529 5532 5535 5538 5542 5545 5549 5552 5556 5559 5562 5566 5570 5574 5579
5537 5534 5531 5528 5526 5523 5521 5519 5517 5515 5514 5512 5511 5511 5509 5508 5507 5505 5504 5504 5503 5503 5503 5504 5505 5507 5510 5513 5515 5517 5520 5524 5527 5531 5534 5537 5541 5544 5548 5552 5555 5559 5563
5526 5523 5520 5517 5515 5512 5509 5507 5505 5503 5501 5500 5499 5499 5497 5496 5494 5493 5491 5491 5490 5490 5490 5490 5491 5493 5496 5498 5500 5502 5505 5508 5512 5516 5519 5522 5526 5530 5533 5537 5541 5545 5549
5515 5512 5509 5506 5503 5500 5497 5495 5493 5491 5489 5488 5487 5486 5485 5483 5482 5480 5479 5478 5477 5477 5477 5477 5477 5479 5481 5483 5485 5487 5489 5493 5497 5501 5504 5508 5512 5516 5519 5522 5527 5531 5536
5504 5501 5498 5495 5492 5489 5485 5483 5481 5479 5477 5476 5474 5473 5472 5471 5469 5468 5467 5465 5464 5463 5463 5463 5464 5465 5467 5469 5470 5472 5474 5478 5483 5486 5489 5493 5496 5500 5502 5506 5511 5516 5521
5493 5490 5486 5484 5481 5477 5474 5471 5469 5467 5465 5464 5462 5461 5459 5458 5457 5455 5454 5452 5451 5450 5449 5449 5450 5450 5452 5453 5455 5457 5459 5463 5466 5470 5474 5477 5481 5484 5487 5491 5496 5501 5505
5483 5479 5476 5473 5469 5466 5463 5460 5458 5456 5454 5452 5451 5449 5447 5446 5444 5442 5441 5439 5437 5436 5435 5435 5435 5435 5437 5438 5439 5441 5444 5447 5450 5454 5457 5461 5464 5468 5472 5476 5480 5485 5488
5472 5469 5465 5462 5458 5455 5451 5449 5447 5444 5442 5440 5439 5437 5435 5433 5431 5429 5427 5426 5424 5422 5422 5421 5421 5421 5422 5423 5424 5426 5428 5431 5434 5438 5441 5444 5447 5451 5455 5460 5464 5468 5472
5462 5459 5455 5451 5448 5444 5440 5438 5435 5432 5430 5429 5427 5424 5422 5420 5418 5416 5414 5412 5410 5409 5408 5408 5408 5408 5408 5409 5409 5411 5413 5416 5419 5422 5425 5428 5431 5434 5439 5443 5447 5451 5456
5453 5449 5445 5441 5437 5433 5430 5427 5424 5421 5419 5417 5415 5413 5410 5408 5406 5403 5401 5399 5397 5395 5395 5395 5394 5395 5395 5395 5395 5396 5398 5401 5404 5407 5410 5412 5416 5419 5423 5427 5431 5435 5440
5444 5440 5436 5432 5428 5423 5420 5416 5413 5410 5408 5406 5404 5401 5399 5397 5394 5391 5389 5386 5385 5384 5383 5382 5382 5382 5382 5381 5382 5383 5384 5387 5390 5393 5395 5399 5402 5405 5409 5412 5416 5420 5424